Regional Weather Roundup
Issued by NWS

Home | Current Version | Previous Version | Graphics & Text | Print | Product List | Glossary On
Versions: 1 2 3 4 5 6 7 8 9 10 11 12 13 14 15 16 17 18 19 20 21 22 23 24 25 26 27 28 29 30 31 32 33 34 35 36 37 38 39 40 41 42 43 44 45 46 47 48 49 50
000
ASUS43 KDMX 301007
RWRIA

WEATHER ROUNDUP FOR IOWA
NATIONAL WEATHER SERVICE DES MOINES IA
500 AM CDT SAT AUG 30 2014

NOTE: "FAIR" INDICATES FEW OR NO CLOUDS BELOW 12,000 FEET WITH NO
SIGNIFICANT WEATHER AND/OR OBSTRUCTIONS TO VISIBILITY.

* - THESE STATIONS ARE NOT NWS STATIONS...THUS NOT UNDER NWS
QUALITY CONTROL.  THEY ALSO DO NOT REPORT WEATHER SUCH
AS PRECIPITATION OR FOG.

IAZ001>003-012>014-020>022-031>034-043>046-301100-
   NORTHWEST IOWA

CITY           SKY/WX    TMP DP  RH WIND       PRES   REMARKS
CARROLL *      MOCLDY    64  64 100 W6        29.85R
CHEROKEE *     PTCLDY    63  63 100 CALM      29.85S
DENISON *      CLOUDY    66  66 100 W6        29.85R FOG
LE MARS *        N/A     64  64 100 CALM      29.88R
ORANGE CITY *  PTCLDY    64  63  94 NW6       29.87S FOG
SHELDON *      FOG       64  64 100 NW6       29.86R VSB 3/4
SIOUX CITY     MOCLDY    66  64  93 NW12G18   29.87S
SPENCER        MOCLDY    64  62  93 NW7       29.85S
STORM LAKE *   FOG       64  64 100 NW8       29.86R VSB 1/4
$$

IAZ055>058-069>071-079>083-090>094-301100-
   SOUTHWEST IOWA

CITY           SKY/WX    TMP DP  RH WIND       PRES   REMARKS
ATLANTIC *     CLOUDY    68  66  94 W3        29.87R FOG
AUDUBON *      CLOUDY    68  66  94 NW3       29.87R FOG
CLARINDA *     MOCLDY    64  64 100 CALM      29.89S
COUNCIL BLFS * CLEAR     64  64 100 W6        29.87S
CRESTON *      CLOUDY    64  64 100 W8        29.87R FOG
HARLAN  *      CLOUDY    66  66 100 NW6       29.91R FOG
LAMONI         CLEAR     65  64  97 SW3       29.86F
RED OAK *      FOG       63  63 100 CALM      29.88S VSB 1/4
SHENANDOAH *   FOG       63  63 100 CALM      29.88S VSB 3/4
$$

IAZ047>049-059>061-072>074-084-301100-
   CENTRAL IOWA

CITY           SKY/WX    TMP DP  RH WIND       PRES   REMARKS
AMES           PTCLDY    66  65  96 W6        29.82R
ANKENY *       PTCLDY    66  66 100 W7        29.82S
CHARITON *     CLEAR     64  64 100 SW5       29.85S
DES MOINES     PTCLDY    67  64  90 SW5       29.83R
GRINNELL*      CLOUDY    66  64  94 W9        29.82S
KNOXVILLE *    PTCLDY    66  64  94 W6        29.83S
MARSHALLTOWN   CLOUDY    67  66  97 W9        29.80R
PELLA *        CLOUDY    66  66 100 W7        29.84S
PERRY *        MOCLDY    64  64 100 W6        29.84R
$$

IAZ004>006-015-016-023>025-035-036-301100-
   NORTH CENTRAL IOWA

CITY           SKY/WX    TMP DP  RH WIND       PRES   REMARKS
ALGONA *       MOCLDY    64  64 100 W6        29.83R FOG
CLARION *      MOCLDY    66  66 100 W6        29.81R
ESTHERVILLE    CLOUDY    66  65  96 NW7       29.83R
FORT DODGE *   CLOUDY    66  64  94 W5        29.83S
MASON CITY     CLOUDY    65  64  97 W7        29.80S
FOREST CITY *  CLOUDY    64  64 100 W5        29.81R
IOWA FALLS *   CLOUDY    66  64  94 W10       29.81R
$$

IAZ007>011-017>019-026>030-037>042-050>054-066-301100-
   NORTHEAST IOWA

CITY           SKY/WX    TMP DP  RH WIND       PRES   REMARKS
CEDAR RAPIDS   CLOUDY    66  66 100 S10       29.80R
CHARLES CITY * DRIZZLE   66  66 100 N3        29.78S
CLINTON *      MOCLDY    70  66  88 SW13      29.83F
DECORAH *      CLOUDY    66  66 100 VRB5      29.76R FOG
DUBUQUE        CLOUDY    70  68  93 SW12      29.79S
MONTICELLO *   CLOUDY    70  70 100 S6        29.78F
OELWEIN *      CLOUDY    68  66  94 SW9       29.78S
WATERLOO       CLOUDY    67  65  93 SW9       29.76S
$$

IAZ064-065-067-068-078-301100-
   EAST CENTRAL IOWA

CITY           SKY/WX    TMP DP  RH WIND       PRES   REMARKS
DAVENPORT      MOCLDY    69  67  93 S9        29.83S
IOWA CITY      CLOUDY    67  66  97 SW3       29.81F
MT. PLEASANT * MOCLDY    70  68  94 SW6       29.84R
MUSCATINE *    PTCLDY    68  66  94 CALM      29.82S
QUAD CITIES    MOCLDY    69  67  93 W5        29.83S
$$

IAZ062-063-075>077-085>089-095>099-301100-
   SOUTHEAST IOWA

CITY           SKY/WX    TMP DP  RH WIND       PRES   REMARKS
BURLINGTON     MOCLDY    71  69  93 SW8       29.82F
FAIRFIELD *    CLOUDY    68  64  88 SW8       29.84R
FORT MADISON * CLEAR     72  70  94 SW8       29.84S
KEOKUK *       CLEAR     70  68  94 SW10      29.83F
OSKALOOSA *      N/A     66  64  94 SW9       29.84R
CENTERVILLE *  CLEAR     66  66 100 SW6       29.87S
OTTUMWA        PTCLDY    67  66  97 SW8       29.83S
WASHINGTON *   PTCLDY    66  66 100 SW5       29.82S
$$

ABBREVIATIONS USED IN REMARKS
   TC - TEMPERATURES IN CELSIUS
  WCI - WIND CHILL INDEX
   HX - HEAT INDEX
  VSB - VISIBILITY
$$




USA.gov is the U.S. government's official web portal to all federal, state and local government web resources and services.